[[{"header":{"parameterUnit":"m.s-1","parameterCategory":1,"la1":30.2991,"la2":30.254,"lo1":-89.0895,"lo2":-89.0444,"dy":0.0017,"dx":0.0017,"nx":28,"ny":28,"refTime":"2025-03-05T09:00:00:Z","depth":0,"parameterNumber":2,"parameterNumberName":"U-component_of_WINDS"},"data":[0,0,0,0,0,0,0,0,0,0,0,0,0,0,0,0,0,0,0,0,0,0,0,0,0,0,0,0,0,0,0,0,0,0,0,0,0,0,0,0,0,0,0,0,0,0,0,0,0,0,0,0,0,0,0,0,0,0,1.1494,1.1495,0,1.1506,1.1506,1.1506,1.147,1.1469,1.1468,1.1467,1.1479,1.148,1.1481,0,0,0,0,0,0,0,0,0,0,0,0,0,1.144,1.1441,1.1494,1.1495,1.1495,1.1506,1.1506,1.1506,1.147,1.1469,1.1468,1.1467,1.1478,1.148,1.1481,0,0,0,0,0,0,0,0,0,0,0,0,0,1.1459,1.1441,1.1494,1.1478,1.1477,1.1506,1.1506,1.1506,1.1471,1.1469,1.1467,1.1466,1.1478,1.148,1.1482,1.1527,0,0,1.1488,1.1489,0,0,0,0,0,0,0,0,1.1458,1.1461,1.148,1.1479,1.1478,1.1485,1.1491,1.1513,1.1471,1.1473,1.1467,1.1465,1.1482,1.1484,1.1489,1.1528,1.1528,1.1488,1.1489,1.149,1.1491,0,0,0,0,0,0,0,1.1456,1.146,1.1499,1.1481,1.1479,1.147,1.1471,1.1495,1.1487,1.1473,1.147,1.1472,1.1481,1.1488,1.1489,1.1528,1.1488,1.149,1.1491,1.1492,1.1601,1.1603,0,0,0,0,0,0,1.1457,1.1459,1.1499,1.1499,1.1464,1.1472,1.1473,1.1484,1.1486,1.1485,1.1473,1.147,1.1485,1.1487,1.149,1.154,1.149,1.1492,1.1493,1.1599,1.1601,1.1603,0,0,0,0,0,0,1.1456,1.1461,1.1498,1.1479,1.1483,1.1475,1.1488,1.1486,1.1492,1.1487,1.1485,1.1482,1.1484,1.1487,1.1517,1.154,1.1493,1.1495,1.1597,1.16,1.1602,1.1644,0,0,0,0,0,0,1.1455,1.1461,1.1479,1.1479,1.1484,1.1526,1.1489,1.1487,1.1495,1.1492,1.1494,1.1493,1.1483,1.1515,1.1519,1.1542,1.1496,1.1595,1.1599,1.1602,1.164,1.1647,1.1654,0,0,0,0,0,1.1453,1.149,1.148,1.1485,1.1506,1.1528,1.153,1.1518,1.1498,1.1515,1.1511,1.1493,1.1538,1.1518,1.1523,1.1547,1.1594,1.1598,1.1601,1.1637,1.1646,1.1653,0,0,0,0,0,0,1.1493,1.149,1.1478,1.1517,1.1523,1.1521,1.1543,1.1528,1.1539,1.1535,1.1519,1.152,1.1553,1.1553,1.1531,1.159,1.1562,1.1567,1.1588,1.1596,1.1603,1.1601,1.1498,0,0,0,0,0,1.1507,1.1525,1.1521,1.1556,1.1559,1.1551,1.156,1.155,1.1555,1.1557,1.1556,1.1561,1.1576,1.1587,1.16,1.1641,1.164,1.166,1.1666,1.1672,1.1676,1.1695,1.1703,1.1616,1.1616,1.1616,0,0,1.1534,1.1535,1.1548,1.1564,1.1567,1.1585,1.1553,1.1574,1.1587,1.156,1.1588,1.1588,1.1593,1.1627,1.1643,1.1629,1.17,1.1677,1.1681,1.1682,1.1699,1.1707,1.1715,1.1618,1.1618,1.1618,0,0,1.1594,1.1597,1.1625,1.1628,1.1633,1.1627,1.1634,1.1634,1.1632,1.166,1.164,1.1655,1.1682,1.1685,1.1691,1.175,1.1733,1.1755,1.1789,1.1808,1.1814,1.182,1.1839,1.1846,1.176,1.176,1.176,0,1.1627,1.1654,1.1641,1.1663,1.167,1.1646,1.1673,1.1677,1.1687,1.1691,1.1676,1.1707,1.171,1.1744,1.1758,1.1764,1.177,1.1754,1.1815,1.1821,1.1826,1.1843,1.1851,1.1762,1.1762,1.1762,1.1761,0,1.1694,1.1713,1.1735,1.1743,1.1753,1.1778,1.1767,1.1778,1.1767,1.1762,1.179,1.1791,1.1804,1.1812,1.1802,1.1844,1.1835,1.1818,1.1789,1.1837,1.1853,1.186,1.1766,1.1765,1.1764,1.1763,0,0,1.1779,1.1778,1.1786,1.1789,1.1792,1.1806,1.1829,1.1841,1.1849,1.1857,1.1874,1.1897,1.188,1.1887,1.1877,1.1894,1.1937,1.1874,1.1874,1.1883,1.1981,1.1992,1.2,1.1927,1.1928,1.1929,1.1979,0,1.1835,1.1873,1.1861,1.19,1.1916,1.1893,1.1912,1.1916,1.1912,1.1925,1.1921,1.1936,1.1914,1.1917,1.1933,1.1928,1.1956,1.1925,1.1941,1.1942,1.1938,1.2009,1.2021,1.2069,1.1986,1.1987,1.1988,0,1.1905,1.1914,1.1954,1.1952,1.1958,1.1976,1.1984,1.1998,1.2001,1.1997,1.2003,1.1989,1.201,1.1984,1.2012,1.1991,1.1997,1.1996,1.1997,1.1996,1.1966,1.2007,1.2084,1.209,1.1998,1.1997,1.1996,0,1.1959,1.1981,1.2007,1.201,1.201,1.2022,1.2023,1.2024,1.2031,1.2039,1.2043,1.2054,1.2059,1.2067,1.2056,1.2038,1.2085,1.2058,1.2081,1.2081,1.209,1.2089,1.2166,1.2098,1.2098,1.2098,1.2098,0,1.2021,1.2046,1.203,1.2046,1.2073,1.2059,1.2085,1.2083,1.2084,1.2099,1.2081,1.2094,1.208,1.2092,1.2084,1.2107,1.2111,1.2107,1.2104,1.2107,1.2107,1.2109,1.2104,1.21,1.21,1.2099,1.2099,0,1.2085,1.2076,1.2102,1.2099,1.2099,1.2118,1.2115,1.2129,1.2124,1.2142,1.2146,1.2137,1.215,1.2141,1.2155,1.2149,1.2178,1.2172,1.2177,1.2174,1.2197,1.2194,1.2275,1.2284,1.2213,1.2214,1.2215,0,1.2124,1.2142,1.2141,1.2148,1.215,1.2163,1.217,1.2157,1.2164,1.2169,1.2182,1.2193,1.2202,1.2224,1.2219,1.2229,1.2221,1.2249,1.2222,1.2224,1.2218,1.2216,1.2217,1.2253,1.2254,1.2255,1.2256,0,1.2193,1.2188,1.2198,1.2206,1.2215,1.2221,1.2226,1.2233,1.222,1.2229,1.2242,1.2249,1.2262,1.2273,1.2281,1.2281,1.2265,1.2264,1.227,1.2272,1.2273,1.227,1.2189,1.2262,1.2261,1.2261,1.2261,1.226,1.2244,1.2258,1.2258,1.227,1.2272,1.2276,1.2288,1.2284,1.2295,1.2304,1.2296,1.2311,1.2312,1.2321,1.2322,1.2334,1.2322,1.233,1.2332,1.2334,1.2336,1.2273,1.2335,1.2335,1.2335,1.2335,1.2335,0,1.231,1.2309,1.232,1.2326,1.2335,1.232,1.2324,1.2332,1.2345,1.2348,1.2356,1.237,1.2381,1.2376,1.2385,1.2395,1.2388,1.2397,1.2395,1.2395,1.2347,1.234,1.2403,1.2403,1.2403,1.2403,1.2403,1.2403,1.2345,1.2367,1.2361,1.2383,1.2382,1.2396,1.2399,1.2403,1.2405,1.2421,1.2429,1.2426,1.2425,1.2434,1.2442,1.2441,1.2444,1.2455,1.2451,1.2406,1.2399,1.2392,1.2386,1.2457,1.2457,1.2498,1.2498,1.2499]},{"header":{"parameterUnit":"m.s-1","parameterCategory":1,"la1":30.2991,"la2":30.254,"lo1":-89.0895,"lo2":-89.0444,"dy":0.0017,"dx":0.0017,"nx":28,"ny":28,"refTime":"2025-03-05T09:00:00:Z","depth":0,"parameterNumber":3,"parameterNumberName":"V-component_of_WINDS"},"data":[0,0,0,0,0,0,0,0,0,0,0,0,0,0,0,0,0,0,0,0,0,0,0,0,0,0,0,0,0,0,0,0,0,0,0,0,0,0,0,0,0,0,0,0,0,0,0,0,0,0,0,0,0,0,0,0,0,0,2.694,2.6939,0,2.6898,2.6898,2.6897,2.6832,2.6831,2.683,2.6829,2.6785,2.6785,2.6785,0,0,0,0,0,0,0,0,0,0,0,0,0,2.6961,2.6961,2.694,2.6939,2.6939,2.6898,2.6898,2.6897,2.6832,2.6831,2.6829,2.6828,2.6785,2.6785,2.6785,0,0,0,0,0,0,0,0,0,0,0,0,0,2.6939,2.6961,2.694,2.6901,2.6898,2.6898,2.6898,2.6897,2.6833,2.6831,2.6829,2.6827,2.6786,2.6785,2.6785,2.682,0,0,2.6785,2.6785,0,0,0,0,0,0,0,0,2.694,2.6938,2.6908,2.6904,2.69,2.6869,2.6889,2.6871,2.6833,2.6857,2.6829,2.6827,2.6814,2.6812,2.6808,2.6818,2.6816,2.6785,2.6785,2.6785,2.6785,0,0,0,0,0,0,0,2.6942,2.6939,2.6923,2.6907,2.6902,2.6886,2.6881,2.6885,2.6846,2.6855,2.685,2.6846,2.6812,2.6808,2.6806,2.6816,2.6785,2.6785,2.6785,2.6785,2.6849,2.685,0,0,0,0,0,0,2.6949,2.6941,2.6925,2.6922,2.6916,2.6887,2.6881,2.688,2.6846,2.6839,2.6848,2.6843,2.6809,2.6807,2.6805,2.6841,2.6785,2.6785,2.6785,2.6847,2.6849,2.6851,0,0,0,0,0,0,2.695,2.6948,2.6926,2.693,2.6926,2.6888,2.6888,2.688,2.6877,2.6841,2.6833,2.6851,2.6808,2.6805,2.6816,2.6838,2.6785,2.6785,2.6845,2.6848,2.685,2.6915,0,0,0,0,0,0,2.6951,2.6949,2.6962,2.6931,2.6926,2.6939,2.6889,2.6881,2.6877,2.687,2.6842,2.6835,2.6806,2.6817,2.6816,2.6837,2.6785,2.6843,2.6846,2.6849,2.691,2.6919,2.6927,0,0,0,0,0,2.6952,2.6983,2.6963,2.6962,2.6942,2.6941,2.6938,2.6904,2.6879,2.6891,2.6868,2.6836,2.6836,2.6818,2.6817,2.6839,2.6841,2.6845,2.6849,2.6907,2.6918,2.6927,0,0,0,0,0,0,2.7018,2.6978,2.6956,2.6978,2.6963,2.693,2.6945,2.6917,2.6909,2.6903,2.6861,2.6855,2.6871,2.6856,2.6837,2.6869,2.6834,2.6838,2.6878,2.6888,2.6896,2.6899,2.6785,0,0,0,0,0,2.7035,2.7038,2.7003,2.7025,2.7019,2.6983,2.6981,2.6956,2.6939,2.6932,2.691,2.6894,2.689,2.6888,2.6883,2.6908,2.69,2.6922,2.6931,2.6937,2.6941,2.695,2.6959,2.6864,2.6864,2.6864,0,0,2.7071,2.7049,2.7054,2.7038,2.7024,2.7026,2.6979,2.6984,2.6985,2.6933,2.6942,2.6925,2.6904,2.6922,2.6928,2.691,2.6965,2.6942,2.6948,2.6948,2.6955,2.6964,2.6972,2.6866,2.6866,2.6865,0,0,2.7137,2.7122,2.7138,2.7124,2.7102,2.7078,2.7082,2.7052,2.7038,2.7046,2.7007,2.7007,2.7002,2.6988,2.698,2.7039,2.7008,2.7038,2.708,2.709,2.7098,2.7104,2.7122,2.713,2.7042,2.7042,2.7042,0,2.7183,2.7186,2.7149,2.7156,2.715,2.7103,2.7118,2.7106,2.7084,2.708,2.706,2.705,2.7033,2.7046,2.706,2.7056,2.7057,2.7041,2.71,2.7106,2.7111,2.7128,2.7136,2.7046,2.7045,2.7045,2.7044,0,2.7244,2.7246,2.7262,2.7241,2.7236,2.7247,2.7211,2.721,2.7185,2.7163,2.717,2.7148,2.7136,2.7137,2.7113,2.7145,2.7134,2.7108,2.7071,2.7124,2.714,2.7146,2.7051,2.7049,2.7048,2.7047,0,0,2.7351,2.7308,2.7314,2.7303,2.7275,2.7275,2.7284,2.7272,2.7271,2.7257,2.7261,2.7257,2.7231,2.7222,2.7196,2.7205,2.7249,2.7177,2.7175,2.7189,2.728,2.73,2.7308,2.7229,2.7231,2.7232,2.7281,0,2.7409,2.7421,2.7387,2.7407,2.7407,2.7362,2.7369,2.7351,2.733,2.7327,2.7303,2.73,2.7267,2.7261,2.7268,2.7243,2.7267,2.7239,2.7231,2.7232,2.7237,2.7316,2.7337,2.7386,2.7287,2.7289,2.7289,0,2.7479,2.7468,2.7488,2.7456,2.7455,2.7462,2.7447,2.7445,2.7424,2.7407,2.7397,2.7366,2.737,2.7335,2.7339,2.7321,2.7316,2.7303,2.7303,2.73,2.7263,2.7314,2.7401,2.7407,2.7299,2.7298,2.7297,0,2.7553,2.7543,2.7552,2.7545,2.7509,2.7514,2.7499,2.7476,2.7471,2.7457,2.7453,2.744,2.7433,2.7423,2.7389,2.7368,2.7396,2.736,2.7381,2.7382,2.7388,2.7388,2.7474,2.7388,2.7388,2.7388,2.7388,0,2.7621,2.7634,2.7584,2.7591,2.7603,2.7564,2.7577,2.7558,2.7538,2.7538,2.7498,2.7499,2.7454,2.745,2.7423,2.7429,2.7426,2.7412,2.7404,2.7415,2.7416,2.741,2.7405,2.739,2.7389,2.7389,2.7389,0,2.7705,2.7672,2.768,2.7645,2.7636,2.7647,2.7616,2.7619,2.7595,2.7596,2.7594,2.7555,2.7548,2.7513,2.7497,2.7479,2.7493,2.7479,2.75,2.7495,2.7517,2.7515,2.7601,2.7609,2.752,2.7521,2.7522,0,2.775,2.7759,2.7724,2.7722,2.7709,2.7705,2.7698,2.7659,2.7654,2.7629,2.7635,2.7624,2.7613,2.7602,2.7572,2.7559,2.7544,2.7575,2.7542,2.7551,2.7542,2.7541,2.7541,2.7582,2.7583,2.7584,2.7585,0,2.7832,2.7815,2.7808,2.7794,2.7787,2.7775,2.7759,2.7759,2.7716,2.7711,2.7703,2.7694,2.7677,2.7666,2.7648,2.7631,2.76,2.7595,2.7599,2.7609,2.762,2.7612,2.7518,2.7593,2.7592,2.7592,2.7591,2.7591,2.7897,2.7902,2.7878,2.787,2.7854,2.784,2.7841,2.7816,2.7809,2.7792,2.7769,2.7763,2.7739,2.7711,2.7696,2.769,2.7673,2.7679,2.768,2.7682,2.7686,2.7622,2.7687,2.7686,2.7686,2.7686,2.7685,0,2.7975,2.7957,2.7951,2.793,2.7924,2.7895,2.7876,2.7872,2.7868,2.7848,2.7838,2.7827,2.7815,2.7784,2.7768,2.7769,2.7754,2.7766,2.7765,2.7761,2.7703,2.7701,2.7778,2.7778,2.7778,2.7778,2.7778,2.7778,2.8015,2.8022,2.8002,2.7999,2.798,2.7974,2.7965,2.7952,2.7935,2.7925,2.7915,2.7895,2.7869,2.7852,2.7839,2.783,2.7825,2.7842,2.7828,2.7774,2.7765,2.7757,2.7754,2.7841,2.7842,2.7885,2.7886,2.7886]}]]